• Currently

    Reported at Minneapolis, Minneapolis-St. Paul International Airport, MN
    9:53 AM CST MON MAY 29 2017
  • 59°F15°C
  • Overcast
    Overcast
  • Feels Like:59°F15°CDew Point:48°F9°CHumidity:68% Winds:NW 15 mph G 2124 kph G 34
    Pressure:29.8 in1009 hPaVisibility:10.00 miles16090.00 meters
Time Weather Temp Dew Point
Humidity Winds Visibility Pressure Precipitation
1 hr 24 hr
Saturday, May 27
23:53 23:53 Clear Clear 63°F17°C 46°F8°C 54% NW 7 mphNW 11 kph 10.0 miles16.1 km 29.83 in1010 hPa 0.00 in0.00 mm --
22:53 22:53 Mostly Clear Mostly Clear 65°F18°C 47°F8°C 52% WNW 6 mphWNW 9 kph 10.0 miles16.1 km 29.83 in1010 hPa 0.00 in0.00 mm --
21:53 21:53 Mostly Clear Mostly Clear 67°F19°C 46°F8°C 47% WNW 5 mphWNW 7 kph 10.0 miles16.1 km 29.8 in1009 hPa 0.00 in0.00 mm --
20:53 20:53 Mostly Clear Mostly Clear 70°F21°C 46°F8°C 42% WNW 7 mphWNW 11 kph 10.0 miles16.1 km 29.77 in1008 hPa 0.00 in0.00 mm --
19:53 19:53 Mostly Sunny Mostly Sunny 75°F24°C 48°F9°C 39% WNW 13 mphWNW 20 kph 10.0 miles16.1 km 29.74 in1007 hPa 0.00 in0.00 mm --
18:53 18:53 Partly Cloudy Partly Cloudy 78°F26°C 49°F9°C 36% W 10 mphW 17 kph 10.0 miles16.1 km 29.71 in1006 hPa 0.00 in0.00 mm --
17:53 17:53 Partly Cloudy Partly Cloudy 79°F26°C 51°F11°C 38% W 16 mphW 26 kph 10.0 miles16.1 km 29.71 in1006 hPa 0.00 in0.00 mm --
16:53 16:53 Mostly Cloudy Mostly Cloudy 78°F26°C 54°F12°C 43% SW 9 mphSW 15 kph 10.0 miles16.1 km 29.71 in1006 hPa 0.00 in0.00 mm --
15:53 15:53 Mostly Cloudy Mostly Cloudy 78°F26°C 54°F12°C 43% WSW 8 mphWSW 13 kph 10.0 miles16.1 km 29.71 in1006 hPa 0.00 in0.00 mm --
14:53 14:53 Mostly Cloudy Mostly Cloudy 76°F24°C 55°F13°C 48% SW 9 mphSW 15 kph 10.0 miles16.1 km 29.74 in1007 hPa 0.00 in0.00 mm --
13:53 13:53 Partly Cloudy Partly Cloudy 75°F24°C 56°F13°C 52% SSW 10 mphSSW 17 kph 10.0 miles16.1 km 29.74 in1007 hPa 0.00 in0.00 mm --
12:53 12:53 Partly Cloudy Partly Cloudy 72°F22°C 55°F13°C 55% S 10 mphS 17 kph 10.0 miles16.1 km 29.74 in1007 hPa 0.00 in0.00 mm --
11:53 11:53 Mostly Cloudy Mostly Cloudy 70°F21°C 55°F13°C 59% S 12 mphS 19 kph 10.0 miles16.1 km 29.74 in1007 hPa 0.00 in0.00 mm --
10:53 10:53 Mostly Cloudy Mostly Cloudy 67°F19°C 54°F12°C 63% S 7 mphS 11 kph 10.0 miles16.1 km 29.74 in1007 hPa 0.00 in0.00 mm --
09:53 09:53 Mostly Cloudy Mostly Cloudy 66°F19°C 53°F12°C 63% S 9 mphS 15 kph 10.0 miles16.1 km 29.74 in1007 hPa 0.00 in0.00 mm --
08:53 08:53 Mostly Cloudy Mostly Cloudy 65°F18°C 53°F12°C 66% S 9 mphS 15 kph 10.0 miles16.1 km 29.74 in1007 hPa 0.00 in0.00 mm --
07:53 07:53 Cloudy Cloudy 62°F17°C 52°F11°C 70% SSE 9 mphSSE 15 kph 10.0 miles16.1 km 29.71 in1006 hPa 0.00 in0.00 mm --
06:53 06:53 Cloudy Cloudy 62°F17°C 51°F11°C 67% SSE 9 mphSSE 15 kph 10.0 miles16.1 km 29.71 in1006 hPa 0.00 in0.00 mm --
05:53 05:53 Cloudy Cloudy 61°F16°C 52°F11°C 72% SE 8 mphSE 13 kph 10.0 miles16.1 km 29.71 in1006 hPa 0.00 in0.00 mm --
04:53 04:53 Cloudy Cloudy 61°F16°C 52°F11°C 72% SE 8 mphSE 13 kph 10.0 miles16.1 km 29.68 in1005 hPa 0.00 in0.00 mm --
03:53 03:53 Cloudy Cloudy 61°F16°C 52°F11°C 72% SSE 9 mphSSE 15 kph 10.0 miles16.1 km 29.71 in1006 hPa 0.00 in0.00 mm --
02:53 02:53 Cloudy Cloudy 62°F17°C 53°F12°C 73% SE 8 mphSE 13 kph 10.0 miles16.1 km 29.71 in1006 hPa 0.00 in0.00 mm --
01:53 01:53 Cloudy Cloudy 62°F17°C 53°F12°C 73% SE 6 mphSE 9 kph 10.0 miles16.1 km 29.68 in1005 hPa 0.00 in0.00 mm --
00:53 00:53 Cloudy Cloudy 62°F17°C 54°F12°C 75% ESE 8 mphESE 13 kph 10.0 miles16.1 km 29.68 in1005 hPa 0.00 in0.00 mm --